contact:dominique.lefevre@mio.osupytheas.fr, maurice.libes@osupytheas.fr, didier.mallarino@osupytheas.fr
Project:EMSO http://www.emso-fr.org/EMSO-France
Depth: 2436.0 m
Title:EMSO Ligure Ouest : Data MII capteur AQUADOPP
Date,Latitude,Longitude,X_East,Y_North,Z_Up,Amplitude_X,Amplitude_Y,Amplitude_Z,Batterie,SoundSpeed,Heading,Pitch,Roll,Pressure,TIS,Speed,Direction
, degrees North, degrees East, m.s-1, m.s-1,m.s-1, 1, 1, 1, Volt, m.s-1, degree, degree, degree, dbar, degree_C, m.s-1, degree
2020-06-01T00:04:03,42.805,6.029,0.048,0.002,-0.008,102.0,108.0,100.0,13.4,1505.2,327.4,-0.8,1.8,2470.345,13.3,0.048,87.6
2020-06-01T00:07:03,42.805,6.029,0.041,-0.01,-0.045,102.0,108.0,101.0,13.4,1505.3,326.1,-0.7,1.8,2470.356,13.31,0.042,103.7
2020-06-01T00:10:03,42.805,6.029,0.059,-0.01,0.004,102.0,109.0,101.0,13.3,1505.3,327.6,-0.7,1.8,2470.36,13.31,0.059,99.6
2020-06-01T00:13:03,42.805,6.029,0.047,0.014,-0.011,101.0,107.0,101.0,13.4,1505.3,323.3,-0.7,1.8,2470.363,13.32,0.049,73.4
2020-06-01T00:16:03,42.805,6.029,0.039,0.009,-0.005,102.0,107.0,101.0,13.4,1505.3,324.2,-0.7,1.8,2470.312,13.32,0.04,77.0
2020-06-01T00:19:03,42.805,6.029,0.052,0.006,0.0,103.0,108.0,101.0,13.4,1505.3,324.2,-0.7,1.8,2470.346,13.32,0.052,83.4
2020-06-01T00:22:03,42.805,6.029,0.038,0.003,-0.032,101.0,109.0,101.0,13.4,1505.3,323.8,-0.7,1.8,2470.38,13.32,0.038,85.5
2020-06-01T00:25:03,42.805,6.029,0.043,-0.001,-0.007,102.0,107.0,100.0,13.4,1505.3,326.6,-0.7,1.8,2470.335,13.32,0.043,91.3
2020-06-01T00:28:03,42.805,6.029,0.045,-0.012,-0.026,102.0,106.0,99.0,13.4,1505.3,326.8,-0.7,1.8,2470.386,13.32,0.046,104.9
2020-06-01T00:31:03,42.805,6.029,0.037,0.009,-0.009,101.0,109.0,100.0,13.4,1505.3,324.4,-0.7,1.8,2470.348,13.32,0.038,76.3
2020-06-01T00:34:03,42.805,6.029,0.033,0.009,-0.009,102.0,108.0,100.0,13.4,1505.3,325.5,-0.7,1.9,2470.333,13.32,0.034,74.7
2020-06-01T00:37:03,42.805,6.029,0.028,0.009,-0.005,102.0,111.0,100.0,13.4,1505.3,327.1,-0.7,1.9,2470.343,13.32,0.029,72.2
2020-06-01T00:40:03,42.805,6.029,0.023,-0.008,-0.025,102.0,109.0,100.0,13.3,1505.3,326.3,-0.7,1.8,2470.34,13.32,0.024,109.2
2020-06-01T00:43:03,42.805,6.029,0.05,-0.017,-0.038,102.0,108.0,101.0,13.4,1505.3,327.9,-0.7,1.9,2470.333,13.32,0.052,108.8
2020-06-01T00:46:03,42.805,6.029,0.033,-0.014,-0.029,102.0,106.0,101.0,13.4,1505.3,324.6,-0.7,1.8,2470.342,13.32,0.035,113.0
2020-06-01T00:52:03,42.805,6.029,0.053,-0.005,-0.015,101.0,107.0,100.0,13.4,1505.2,323.0,-0.7,1.8,2470.36,13.3,0.053,95.4
2020-06-01T00:55:03,42.805,6.029,0.054,0.0,-0.005,101.0,108.0,100.0,13.4,1505.3,326.2,-0.7,1.8,2470.432,13.31,0.053,90.0
2020-06-01T00:58:03,42.805,6.029,0.042,-0.011,-0.026,101.0,107.0,100.0,13.4,1505.3,326.5,-0.7,1.9,2470.414,13.31,0.043,104.7
2020-06-01T01:04:03,42.805,6.029,0.045,-0.001,0.014,104.0,113.0,102.0,13.4,1505.2,326.6,-0.8,1.8,2470.405,13.3,0.045,91.3
2020-06-01T01:07:04,42.805,6.029,0.023,-0.017,-0.038,102.0,108.0,100.0,13.4,1505.3,326.7,-0.7,1.8,2470.371,13.31,0.028,126.5
2020-06-01T01:10:03,42.805,6.029,0.02,0.021,0.014,102.0,108.0,101.0,13.4,1505.3,326.5,-0.7,1.8,2470.41,13.31,0.028,43.6
2020-06-01T01:13:03,42.805,6.029,0.052,-0.014,-0.026,102.0,107.0,100.0,13.4,1505.3,327.2,-0.7,1.8,2470.397,13.31,0.053,105.1
2020-06-01T01:16:03,42.805,6.029,0.044,0.004,-0.032,102.0,107.0,101.0,13.4,1505.3,327.2,-0.7,1.8,2470.365,13.32,0.044,84.8
2020-06-01T01:19:03,42.805,6.029,0.011,0.0,-0.045,100.0,106.0,101.0,13.4,1505.3,327.1,-0.7,1.8,2470.392,13.32,0.011,90.0
2020-06-01T01:22:03,42.805,6.029,0.052,0.01,0.023,102.0,109.0,100.0,13.4,1505.3,323.7,-0.7,1.8,2470.394,13.32,0.052,79.1
2020-06-01T01:25:03,42.805,6.029,0.049,0.012,0.017,101.0,106.0,100.0,13.4,1505.3,325.0,-0.7,1.8,2470.384,13.32,0.05,76.2
2020-06-01T01:28:03,42.805,6.029,0.034,0.002,-0.02,101.0,108.0,100.0,13.4,1505.3,324.7,-0.7,1.9,2470.389,13.32,0.034,86.6
2020-06-01T01:31:03,42.805,6.029,0.038,0.0,-0.015,101.0,107.0,102.0,13.4,1505.3,327.7,-0.7,1.8,2470.361,13.32,0.038,90.0
2020-06-01T01:34:03,42.805,6.029,0.024,-0.003,-0.032,102.0,108.0,100.0,13.3,1505.3,327.2,-0.7,1.8,2470.372,13.32,0.024,97.1
2020-06-01T01:37:03,42.805,6.029,0.032,-0.003,-0.024,102.0,106.0,100.0,13.4,1505.3,326.7,-0.7,1.8,2470.391,13.32,0.032,95.4
2020-06-01T01:40:03,42.805,6.029,0.059,0.005,0.0,101.0,108.0,100.0,13.4,1505.3,326.8,-0.7,1.8,2470.395,13.32,0.059,85.2
2020-06-01T01:43:03,42.805,6.029,0.04,0.001,-0.013,104.0,108.0,99.0,13.3,1505.3,327.3,-0.7,1.8,2470.375,13.32,0.04,88.6
2020-06-01T01:46:03,42.805,6.029,0.022,0.0,-0.049,102.0,109.0,100.0,13.4,1505.3,327.4,-0.7,1.8,2470.401,13.32,0.022,90.0
2020-06-01T01:49:03,42.805,6.029,0.016,0.028,-0.001,103.0,108.0,100.0,13.4,1505.3,325.1,-0.7,1.8,2470.407,13.32,0.032,29.7
2020-06-01T01:52:03,42.805,6.029,0.039,0.008,-0.025,102.0,108.0,100.0,13.4,1505.3,326.6,-0.7,1.8,2470.423,13.32,0.039,78.4
2020-06-01T01:55:03,42.805,6.029,0.061,-0.002,-0.032,103.0,107.0,101.0,13.4,1505.3,327.4,-0.7,1.8,2470.344,13.32,0.061,91.9
2020-06-01T01:58:03,42.805,6.029,0.046,0.018,-0.008,103.0,107.0,101.0,13.4,1505.3,325.8,-0.7,1.8,2470.38,13.32,0.049,68.6
2020-06-01T02:04:03,42.805,6.029,0.036,0.001,-0.007,103.0,106.0,101.0,13.4,1505.2,324.3,-0.7,1.8,2470.447,13.3,0.036,88.4
2020-06-01T02:07:03,42.805,6.029,0.035,0.006,-0.002,102.0,109.0,100.0,13.4,1505.3,327.9,-0.7,1.8,2470.395,13.31,0.035,80.3
2020-06-01T02:13:03,42.805,6.029,0.056,0.006,-0.019,102.0,106.0,99.0,13.4,1505.2,328.1,-0.8,1.8,2470.399,13.3,0.056,83.9
2020-06-01T02:16:03,42.805,6.029,0.053,0.0,-0.013,102.0,107.0,101.0,13.4,1505.3,325.8,-0.7,1.8,2470.411,13.31,0.053,90.0
2020-06-01T02:19:03,42.805,6.029,0.033,0.005,-0.015,104.0,107.0,100.0,13.4,1505.3,327.9,-0.7,1.8,2470.381,13.31,0.033,81.4
2020-06-01T02:22:03,42.805,6.029,0.005,-0.001,-0.015,103.0,107.0,99.0,13.4,1505.3,328.6,-0.7,1.8,2470.413,13.32,0.005,101.3
2020-06-01T02:25:03,42.805,6.029,0.007,0.017,-0.001,102.0,107.0,100.0,13.4,1505.3,323.5,-0.7,1.8,2470.402,13.32,0.018,22.4
2020-06-01T02:28:03,42.805,6.029,0.042,-0.005,-0.023,103.0,106.0,100.0,13.4,1505.3,323.5,-0.7,1.8,2470.415,13.32,0.042,96.8
2020-06-01T02:31:03,42.805,6.029,-0.006,-0.008,-0.051,102.0,107.0,101.0,13.4,1505.3,327.8,-0.7,1.8,2470.386,13.32,0.01,216.9
2020-06-01T02:34:03,42.805,6.029,0.04,-0.003,-0.044,103.0,108.0,100.0,13.4,1505.3,328.8,-0.7,1.9,2470.394,13.32,0.04,94.3
2020-06-01T02:37:03,42.805,6.029,0.039,-0.002,-0.05,102.0,109.0,100.0,13.3,1505.3,325.0,-0.7,1.8,2470.399,13.32,0.039,92.9
2020-06-01T02:40:03,42.805,6.029,0.012,0.017,-0.036,102.0,110.0,100.0,13.4,1505.3,323.9,-0.7,1.8,2470.397,13.32,0.02,35.2
2020-06-01T02:43:03,42.805,6.029,0.039,0.023,0.002,103.0,109.0,99.0,13.4,1505.3,326.4,-0.7,1.8,2470.428,13.32,0.045,59.5
2020-06-01T02:46:03,42.805,6.029,0.025,0.026,0.0,102.0,109.0,100.0,13.4,1505.3,323.5,-0.7,1.8,2470.419,13.32,0.036,43.9
2020-06-01T02:49:03,42.805,6.029,0.054,0.017,0.003,101.0,109.0,101.0,13.4,1505.3,324.9,-0.7,1.8,2470.4,13.32,0.056,72.5
2020-06-01T02:52:03,42.805,6.029,-0.001,0.011,-0.052,102.0,108.0,100.0,13.4,1505.3,326.4,-0.7,1.8,2470.417,13.32,0.011,354.8
2020-06-01T02:55:03,42.805,6.029,0.023,0.003,-0.027,103.0,107.0,99.0,13.4,1505.3,325.7,-0.7,1.8,2470.394,13.32,0.023,82.6
2020-06-01T02:58:03,42.805,6.029,0.027,0.006,-0.042,103.0,109.0,100.0,13.3,1505.3,324.8,-0.7,1.8,2470.371,13.32,0.027,77.5
2020-06-01T03:04:03,42.805,6.029,0.025,0.011,-0.024,101.0,109.0,101.0,13.4,1505.2,325.0,-0.8,1.8,2470.405,13.3,0.027,66.3
2020-06-01T03:07:03,42.805,6.029,0.035,-0.004,-0.021,103.0,108.0,100.0,13.4,1505.3,322.7,-0.7,1.8,2470.411,13.31,0.035,96.5
2020-06-01T03:10:03,42.805,6.029,0.058,-0.005,-0.02,102.0,107.0,101.0,13.4,1505.3,326.7,-0.8,1.8,2470.387,13.31,0.058,94.9
2020-06-01T03:13:03,42.805,6.029,0.035,0.015,-0.041,102.0,111.0,102.0,13.3,1505.3,327.9,-0.7,1.9,2470.396,13.32,0.038,66.8
2020-06-01T03:16:03,42.805,6.029,0.035,0.0,-0.03,103.0,108.0,100.0,13.4,1505.3,323.0,-0.7,1.8,2470.402,13.32,0.035,90.0
2020-06-01T03:19:03,42.805,6.029,0.025,0.021,-0.034,101.0,110.0,101.0,13.4,1505.3,327.0,-0.7,1.8,2470.395,13.32,0.032,50.0
2020-06-01T03:22:03,42.805,6.029,0.006,0.01,-0.039,102.0,109.0,100.0,13.4,1505.3,328.4,-0.7,1.8,2470.415,13.32,0.011,31.0
2020-06-01T03:25:03,42.805,6.029,0.008,0.018,-0.015,102.0,109.0,100.0,13.4,1505.3,323.6,-0.7,1.8,2470.413,13.32,0.019,24.0
2020-06-01T03:28:03,42.805,6.029,0.019,0.005,-0.041,103.0,109.0,101.0,13.4,1505.3,324.8,-0.7,1.8,2470.413,13.32,0.019,75.3
2020-06-01T03:31:03,42.805,6.029,0.024,0.011,-0.039,101.0,109.0,100.0,13.4,1505.3,323.5,-0.8,1.8,2470.422,13.32,0.026,65.4
2020-06-01T03:34:03,42.805,6.029,0.026,-0.007,-0.029,103.0,112.0,100.0,13.3,1505.3,328.0,-0.7,1.8,2470.402,13.32,0.026,105.1
2020-06-01T03:37:03,42.805,6.029,0.022,0.016,0.008,103.0,113.0,101.0,13.3,1505.3,327.0,-0.7,1.8,2470.379,13.32,0.027,54.0
2020-06-01T03:40:03,42.805,6.029,0.021,0.045,-0.005,103.0,112.0,101.0,13.4,1505.3,324.9,-0.7,1.8,2470.403,13.32,0.049,25.0
2020-06-01T03:43:03,42.805,6.029,0.021,0.025,0.002,103.0,110.0,101.0,13.4,1505.3,326.3,-0.7,1.8,2470.387,13.32,0.032,40.0
2020-06-01T03:46:03,42.805,6.029,0.038,0.022,-0.01,102.0,108.0,100.0,13.4,1505.3,325.1,-0.7,1.8,2470.424,13.32,0.043,59.9
2020-06-01T03:49:03,42.805,6.029,0.05,0.014,-0.002,103.0,108.0,101.0,13.4,1505.3,326.9,-0.7,1.8,2470.41,13.32,0.051,74.4
2020-06-01T03:52:03,42.805,6.029,0.043,0.011,-0.018,103.0,112.0,100.0,13.4,1505.3,328.0,-0.7,1.8,2470.45,13.32,0.044,75.7
2020-06-01T03:55:03,42.805,6.029,0.043,0.007,0.01,102.0,109.0,101.0,13.4,1505.3,325.3,-0.7,1.8,2470.4,13.32,0.043,80.8
2020-06-01T03:58:03,42.805,6.029,0.038,0.026,-0.004,103.0,111.0,100.0,13.3,1505.3,328.0,-0.7,1.8,2470.39,13.32,0.046,55.6
2020-06-01T04:04:03,42.805,6.029,0.034,0.007,-0.007,102.0,110.0,102.0,13.4,1505.2,326.7,-0.7,1.8,2470.436,13.3,0.034,78.4
2020-06-01T04:07:03,42.805,6.029,0.033,0.021,-0.024,102.0,114.0,100.0,13.4,1505.3,326.6,-0.7,1.8,2470.412,13.31,0.039,57.5
2020-06-01T04:10:03,42.805,6.029,0.042,0.017,-0.024,103.0,114.0,101.0,13.4,1505.3,322.7,-0.7,1.8,2470.421,13.31,0.045,68.0
2020-06-01T04:13:03,42.805,6.029,0.0,0.022,-0.035,102.0,114.0,100.0,13.4,1505.3,326.4,-0.7,1.8,2470.407,13.32,0.022,0.0
2020-06-01T04:16:03,42.805,6.029,0.028,0.003,-0.022,102.0,114.0,101.0,13.4,1505.3,323.0,-0.7,1.8,2470.427,13.32,0.028,83.9
2020-06-01T04:19:03,42.805,6.029,0.021,0.008,-0.049,103.0,113.0,101.0,13.3,1505.3,327.5,-0.7,1.8,2470.38,13.32,0.022,69.1
2020-06-01T04:22:03,42.805,6.029,0.031,0.002,-0.037,103.0,112.0,101.0,13.4,1505.3,324.3,-0.7,1.8,2470.383,13.32,0.031,86.3
2020-06-01T04:25:03,42.805,6.029,0.046,0.037,-0.022,103.0,113.0,100.0,13.3,1505.3,327.0,-0.7,1.8,2470.398,13.32,0.059,51.2
2020-06-01T04:28:03,42.805,6.029,0.036,0.009,-0.04,102.0,112.0,99.0,13.4,1505.3,325.6,-0.7,1.8,2470.393,13.32,0.037,76.0
2020-06-01T04:31:03,42.805,6.029,0.045,0.015,-0.014,102.0,116.0,101.0,13.3,1505.3,323.4,-0.7,1.8,2470.368,13.32,0.047,71.6
2020-06-01T04:34:03,42.805,6.029,0.051,0.006,0.0,102.0,112.0,102.0,13.4,1505.3,327.9,-0.7,1.8,2470.43,13.32,0.051,83.3
2020-06-01T04:37:03,42.805,6.029,0.032,0.026,-0.019,103.0,116.0,100.0,13.4,1505.3,325.0,-0.7,1.8,2470.386,13.32,0.041,50.9
2020-06-01T04:40:03,42.805,6.029,0.039,0.02,-0.025,101.0,114.0,101.0,13.3,1505.3,325.2,-0.7,1.8,2470.394,13.32,0.043,62.9
2020-06-01T04:43:03,42.805,6.029,0.006,0.022,-0.039,102.0,118.0,102.0,13.3,1505.3,323.7,-0.7,1.8,2470.391,13.32,0.022,15.3
2020-06-01T04:46:03,42.805,6.029,0.031,0.022,-0.024,103.0,116.0,101.0,13.3,1505.3,327.7,-0.7,1.9,2470.389,13.32,0.038,54.6
2020-06-01T04:49:03,42.805,6.029,0.013,0.007,-0.02,104.0,119.0,100.0,13.4,1505.3,325.4,-0.7,1.9,2470.366,13.32,0.014,61.7
2020-06-01T04:52:03,42.805,6.029,0.012,0.011,-0.043,103.0,120.0,100.0,13.3,1505.3,326.1,-0.7,1.8,2470.371,13.32,0.016,47.5
2020-06-01T04:55:03,42.805,6.029,0.044,0.018,-0.018,104.0,118.0,101.0,13.3,1505.3,326.3,-0.7,1.8,2470.368,13.32,0.047,67.8
2020-06-01T04:58:03,42.805,6.029,0.018,0.018,-0.029,102.0,116.0,101.0,13.4,1505.3,324.9,-0.7,1.8,2470.374,13.32,0.025,45.0
2020-06-01T05:04:03,42.805,6.029,0.011,0.035,-0.006,102.0,120.0,101.0,13.3,1505.2,326.2,-0.7,1.8,2470.419,13.3,0.036,17.4
2020-06-01T05:07:03,42.805,6.029,0.012,0.024,-0.042,102.0,118.0,101.0,13.4,1505.3,326.5,-0.7,1.8,2470.409,13.31,0.026,26.6
2020-06-01T05:10:03,42.805,6.029,0.032,0.022,0.003,104.0,113.0,102.0,13.3,1505.3,325.5,-0.7,1.8,2470.379,13.31,0.038,55.5
2020-06-01T05:13:03,42.805,6.029,0.011,0.022,-0.036,102.0,117.0,102.0,13.4,1505.3,325.1,-0.7,1.8,2470.38,13.32,0.024,26.6
2020-06-01T05:16:03,42.805,6.029,0.017,0.007,-0.017,103.0,114.0,101.0,13.4,1505.3,323.6,-0.7,1.8,2470.404,13.32,0.018,67.6
2020-06-01T05:19:03,42.805,6.029,-0.01,0.025,-0.039,102.0,117.0,100.0,13.4,1505.3,326.9,-0.7,1.9,2470.389,13.32,0.026,338.2
2020-06-01T05:22:03,42.805,6.029,0.021,0.023,-0.015,103.0,117.0,101.0,13.4,1505.3,325.9,-0.7,1.9,2470.427,13.32,0.031,42.4
2020-06-01T05:25:03,42.805,6.029,0.028,0.008,-0.03,103.0,115.0,102.0,13.3,1505.3,325.2,-0.7,1.8,2470.314,13.32,0.029,74.1
2020-06-01T05:28:03,42.805,6.029,0.004,0.025,-0.06,103.0,118.0,101.0,13.4,1505.3,326.0,-0.7,1.8,2470.369,13.32,0.025,9.1
2020-06-01T05:31:03,42.805,6.029,0.043,0.007,-0.046,102.0,119.0,101.0,13.4,1505.3,323.5,-0.7,1.8,2470.372,13.32,0.043,80.8
2020-06-01T05:34:03,42.805,6.029,0.004,0.032,-0.007,104.0,118.0,100.0,13.3,1505.3,325.2,-0.7,1.8,2470.365,13.32,0.032,7.1
2020-06-01T05:37:03,42.805,6.029,0.01,0.016,-0.028,104.0,120.0,101.0,13.3,1505.3,325.1,-0.7,1.8,2470.366,13.32,0.018,32.0
2020-06-01T05:40:03,42.805,6.029,0.018,0.043,-0.031,103.0,118.0,100.0,13.4,1505.3,323.1,-0.7,1.8,2470.367,13.32,0.046,22.7
2020-06-01T05:43:03,42.805,6.029,0.027,0.026,0.011,103.0,119.0,101.0,13.4,1505.3,324.5,-0.7,1.8,2470.353,13.32,0.037,46.1
2020-06-01T05:46:03,42.805,6.029,0.032,0.023,-0.015,103.0,119.0,101.0,13.3,1505.3,323.8,-0.7,1.8,2470.349,13.32,0.039,54.3
2020-06-01T05:49:03,42.805,6.029,0.032,0.018,-0.019,103.0,116.0,100.0,13.4,1505.3,327.6,-0.7,1.8,2470.365,13.32,0.036,60.6
2020-06-01T05:52:03,42.805,6.029,0.039,0.0,-0.045,103.0,116.0,100.0,13.4,1505.3,324.7,-0.7,1.8,2470.384,13.32,0.039,90.0
2020-06-01T05:55:03,42.805,6.029,0.041,0.016,-0.012,103.0,117.0,101.0,13.4,1505.3,323.9,-0.7,1.8,2470.351,13.32,0.044,68.7
2020-06-01T05:58:03,42.805,6.029,0.05,0.029,0.008,102.0,118.0,101.0,13.4,1505.3,327.9,-0.7,1.8,2470.363,13.32,0.057,59.9
2020-06-01T06:04:03,42.805,6.029,0.047,0.015,0.01,103.0,117.0,101.0,13.4,1505.2,327.8,-0.8,1.8,2470.35,13.3,0.049,72.3
2020-06-01T06:07:03,42.805,6.029,0.021,0.022,-0.034,104.0,121.0,101.0,13.3,1505.3,325.4,-0.7,1.8,2470.359,13.31,0.03,43.7
2020-06-01T06:10:03,42.805,6.029,0.011,0.017,-0.016,103.0,119.0,102.0,13.4,1505.3,324.0,-0.7,1.8,2470.39,13.31,0.02,32.9
2020-06-01T06:13:03,42.805,6.029,0.03,0.003,-0.017,103.0,121.0,100.0,13.4,1505.3,326.4,-0.7,1.8,2470.343,13.32,0.03,84.3
2020-06-01T06:16:03,42.805,6.029,0.033,0.019,0.003,102.0,119.0,101.0,13.4,1505.3,328.2,-0.7,1.9,2470.355,13.32,0.038,60.1
2020-06-01T06:19:03,42.805,6.029,0.009,0.03,-0.012,103.0,120.0,101.0,13.3,1505.3,323.2,-0.7,1.8,2470.382,13.32,0.031,16.7
2020-06-01T06:22:03,42.805,6.029,0.023,0.033,-0.03,101.0,118.0,101.0,13.4,1505.3,326.8,-0.7,1.9,2470.359,13.32,0.04,34.9
2020-06-01T06:25:03,42.805,6.029,0.021,0.006,-0.047,103.0,121.0,100.0,13.4,1505.3,324.7,-0.7,1.9,2470.329,13.32,0.021,74.1
2020-06-01T06:28:03,42.805,6.029,0.037,0.007,-0.02,102.0,122.0,101.0,13.3,1505.3,326.4,-0.7,1.8,2470.315,13.32,0.037,79.3
2020-06-01T06:31:03,42.805,6.029,0.01,0.014,0.003,103.0,123.0,102.0,13.4,1505.3,325.1,-0.7,1.9,2470.35,13.32,0.017,35.5
2020-06-01T06:34:03,42.805,6.029,0.033,0.005,-0.025,104.0,115.0,100.0,13.4,1505.3,324.6,-0.7,1.8,2470.34,13.32,0.033,81.4
2020-06-01T06:37:03,42.805,6.029,0.009,0.018,-0.035,102.0,116.0,102.0,13.4,1505.3,326.8,-0.7,1.8,2470.325,13.32,0.02,26.6
2020-06-01T06:40:03,42.805,6.029,0.036,0.03,-0.013,103.0,118.0,101.0,13.4,1505.3,325.4,-0.7,1.8,2470.323,13.32,0.046,50.2
2020-06-01T06:43:03,42.805,6.029,0.035,0.027,-0.012,103.0,119.0,101.0,13.4,1505.3,326.7,-0.7,1.8,2470.341,13.32,0.044,52.3
2020-06-01T06:46:03,42.805,6.029,0.0,0.011,-0.038,103.0,119.0,102.0,13.4,1505.3,325.4,-0.7,1.8,2470.32,13.32,0.011,0.0
2020-06-01T06:49:03,42.805,6.029,0.035,0.018,-0.035,102.0,117.0,102.0,13.4,1505.3,326.4,-0.7,1.8,2470.304,13.32,0.039,62.8
2020-06-01T06:52:03,42.805,6.029,0.038,0.007,0.004,103.0,117.0,101.0,13.4,1505.3,326.5,-0.7,1.8,2470.307,13.32,0.038,79.6
2020-06-01T06:55:03,42.805,6.029,0.011,0.016,-0.04,102.0,122.0,102.0,13.4,1505.3,323.8,-0.7,1.9,2470.322,13.32,0.019,34.5
2020-06-01T06:58:03,42.805,6.029,0.034,0.022,-0.016,103.0,119.0,102.0,13.4,1505.3,324.7,-0.7,1.8,2470.311,13.32,0.04,57.1
2020-06-01T07:04:03,42.805,6.029,0.058,0.016,0.016,102.0,119.0,101.0,13.4,1505.2,326.0,-0.8,1.8,2470.355,13.3,0.06,74.6
2020-06-01T07:07:03,42.805,6.029,0.033,-0.003,-0.041,102.0,120.0,101.0,13.3,1505.3,325.4,-0.7,1.8,2470.345,13.31,0.033,95.2
2020-06-01T07:10:03,42.805,6.029,0.027,0.028,-0.022,103.0,122.0,101.0,13.3,1505.3,325.6,-0.7,1.8,2470.314,13.31,0.038,44.0
2020-06-01T07:13:03,42.805,6.029,0.007,0.028,-0.006,102.0,122.0,101.0,13.3,1505.3,323.9,-0.7,1.8,2470.324,13.32,0.028,14.0
2020-06-01T07:16:03,42.805,6.029,0.027,0.017,-0.019,103.0,121.0,100.0,13.4,1505.3,323.0,-0.7,1.9,2470.344,13.32,0.031,57.8
2020-06-01T07:19:03,42.805,6.029,0.038,0.01,-0.006,102.0,121.0,101.0,13.3,1505.3,323.4,-0.7,1.8,2470.362,13.32,0.039,75.3
2020-06-01T07:22:03,42.805,6.029,0.034,0.021,-0.04,104.0,121.0,101.0,13.4,1505.3,324.8,-0.7,1.8,2470.259,13.32,0.039,58.3
2020-06-01T07:25:03,42.805,6.029,0.022,0.037,-0.002,103.0,122.0,101.0,13.3,1505.3,328.4,-0.7,1.8,2470.284,13.32,0.043,30.7
2020-06-01T07:28:03,42.805,6.029,0.03,-0.009,-0.032,103.0,122.0,101.0,13.4,1505.3,326.5,-0.7,1.8,2470.314,13.32,0.031,106.7
2020-06-01T07:31:03,42.805,6.029,0.019,0.018,-0.026,103.0,123.0,101.0,13.4,1505.3,324.4,-0.7,1.8,2470.32,13.32,0.026,46.5
2020-06-01T07:34:03,42.805,6.029,0.032,0.024,0.007,102.0,122.0,102.0,13.3,1505.3,326.9,-0.7,1.8,2470.274,13.32,0.04,53.1
2020-06-01T07:37:03,42.805,6.029,0.04,0.032,-0.01,103.0,119.0,101.0,13.4,1505.3,323.0,-0.7,1.8,2470.277,13.32,0.051,51.3
2020-06-01T07:40:03,42.805,6.029,0.012,0.009,-0.025,103.0,121.0,101.0,13.4,1505.3,326.3,-0.7,1.8,2470.271,13.32,0.015,53.1
2020-06-01T07:43:03,42.805,6.029,0.009,0.013,-0.001,102.0,122.0,101.0,13.4,1505.3,327.2,-0.7,1.8,2470.288,13.32,0.015,34.7
2020-06-01T07:46:03,42.805,6.029,0.038,0.022,-0.015,102.0,126.0,100.0,13.3,1505.3,325.6,-0.7,1.8,2470.282,13.32,0.043,59.9
2020-06-01T07:49:03,42.805,6.029,0.022,-0.01,-0.02,103.0,119.0,102.0,13.4,1505.3,326.5,-0.7,1.8,2470.243,13.32,0.024,114.4
2020-06-01T07:52:03,42.805,6.029,0.009,0.025,-0.04,103.0,119.0,102.0,13.4,1505.3,323.5,-0.7,1.8,2470.253,13.32,0.026,19.8
2020-06-01T07:55:03,42.805,6.029,0.042,-0.006,-0.027,103.0,121.0,101.0,13.4,1505.3,324.9,-0.7,1.8,2470.251,13.32,0.042,98.1
2020-06-01T07:58:03,42.805,6.029,0.049,0.0,-0.007,103.0,118.0,101.0,13.4,1505.3,325.2,-0.7,1.8,2470.266,13.32,0.049,90.0
2020-06-01T08:04:03,42.805,6.029,0.035,0.009,0.016,103.0,119.0,101.0,13.3,1505.2,325.1,-0.7,1.8,2470.297,13.3,0.036,75.6
2020-06-01T08:07:03,42.805,6.029,0.038,0.0,-0.009,102.0,120.0,101.0,13.4,1505.3,324.5,-0.7,1.8,2470.289,13.31,0.038,90.0
2020-06-01T08:10:03,42.805,6.029,0.046,-0.005,-0.032,102.0,114.0,101.0,13.4,1505.3,325.9,-0.7,1.8,2470.278,13.31,0.046,96.2
2020-06-01T08:13:03,42.805,6.029,0.05,0.014,0.023,104.0,116.0,101.0,13.4,1505.3,328.4,-0.7,1.9,2470.291,13.32,0.051,74.4
2020-06-01T08:16:03,42.805,6.029,0.032,0.003,-0.018,104.0,116.0,101.0,13.4,1505.3,326.3,-0.7,1.8,2470.294,13.32,0.032,84.6
2020-06-01T08:19:03,42.805,6.029,0.038,0.003,-0.004,103.0,114.0,100.0,13.4,1505.3,328.1,-0.7,1.8,2470.289,13.32,0.038,85.5
2020-06-01T08:22:03,42.805,6.029,0.08,0.0,-0.011,103.0,116.0,101.0,13.4,1505.3,323.0,-0.7,1.8,2470.238,13.32,0.079,90.0
2020-06-01T08:25:03,42.805,6.029,0.048,-0.01,-0.013,102.0,117.0,101.0,13.4,1505.3,325.5,-0.7,1.8,2470.318,13.32,0.049,101.8
2020-06-01T08:28:03,42.805,6.029,0.025,-0.008,0.01,104.0,113.0,100.0,13.4,1505.3,327.2,-0.7,1.8,2470.219,13.32,0.026,107.7
2020-06-01T08:31:03,42.805,6.029,0.039,0.009,-0.005,103.0,115.0,99.0,13.4,1505.3,323.0,-0.7,1.8,2470.237,13.32,0.04,77.0
2020-06-01T08:34:03,42.805,6.029,0.032,0.008,-0.013,104.0,117.0,101.0,13.4,1505.3,326.3,-0.7,1.8,2470.195,13.32,0.032,76.0
2020-06-01T08:37:03,42.805,6.029,0.053,0.001,-0.028,104.0,114.0,102.0,13.4,1505.3,323.8,-0.7,1.8,2470.202,13.32,0.053,88.9
2020-06-01T08:40:03,42.805,6.029,0.047,0.0,-0.022,104.0,116.0,100.0,13.3,1505.3,326.0,-0.7,1.8,2470.245,13.32,0.047,90.0
2020-06-01T08:43:03,42.805,6.029,0.075,-0.006,0.0,103.0,113.0,100.0,13.4,1505.3,328.0,-0.7,1.8,2470.256,13.32,0.075,94.6
2020-06-01T08:46:03,42.805,6.029,0.026,0.0,-0.005,103.0,116.0,101.0,13.4,1505.3,324.7,-0.7,1.8,2470.251,13.32,0.026,90.0
2020-06-01T08:49:03,42.805,6.029,0.033,0.011,0.002,102.0,115.0,101.0,13.4,1505.3,324.7,-0.7,1.8,2470.226,13.32,0.034,71.6
2020-06-01T08:52:03,42.805,6.029,0.045,-0.002,-0.023,103.0,115.0,102.0,13.4,1505.3,324.9,-0.7,1.8,2470.235,13.32,0.045,92.5
2020-06-01T08:55:03,42.805,6.029,0.057,-0.006,0.011,104.0,111.0,101.0,13.3,1505.3,326.4,-0.7,1.8,2470.23,13.32,0.057,96.0
2020-06-01T08:58:03,42.805,6.029,0.053,-0.011,-0.002,104.0,114.0,101.0,13.4,1505.3,326.3,-0.7,1.8,2470.231,13.32,0.054,101.7
2020-06-01T09:04:03,42.805,6.029,0.037,-0.021,-0.011,104.0,113.0,100.0,13.4,1505.2,325.1,-0.8,1.8,2470.278,13.3,0.042,119.6
2020-06-01T09:07:03,42.805,6.029,0.05,0.018,0.032,104.0,114.0,101.0,13.3,1505.3,325.3,-0.7,1.9,2470.272,13.31,0.053,70.2
2020-06-01T09:10:03,42.805,6.029,0.035,-0.004,-0.015,102.0,115.0,101.0,13.4,1505.3,325.1,-0.7,1.8,2470.285,13.31,0.035,96.5
2020-06-01T09:13:03,42.805,6.029,0.054,-0.003,-0.032,103.0,113.0,102.0,13.4,1505.3,328.2,-0.7,1.8,2470.23,13.32,0.054,93.2
2020-06-01T09:16:03,42.805,6.029,0.028,-0.002,-0.008,103.0,113.0,100.0,13.4,1505.3,325.6,-0.7,1.8,2470.208,13.32,0.028,94.1
2020-06-01T09:19:03,42.805,6.029,0.063,-0.003,0.023,102.0,109.0,101.0,13.4,1505.3,324.2,-0.7,1.8,2470.21,13.32,0.063,92.7
2020-06-01T09:22:03,42.805,6.029,0.049,0.0,0.005,103.0,115.0,101.0,13.3,1505.3,323.9,-0.7,1.8,2470.261,13.32,0.049,90.0
2020-06-01T09:25:03,42.805,6.029,0.051,-0.013,-0.05,103.0,114.0,101.0,13.3,1505.3,326.5,-0.7,1.8,2470.271,13.32,0.052,104.3
2020-06-01T09:28:03,42.805,6.029,0.028,0.0,-0.024,103.0,114.0,101.0,13.4,1505.3,323.3,-0.7,1.8,2470.258,13.32,0.028,90.0
2020-06-01T09:31:03,42.805,6.029,0.038,-0.003,-0.046,103.0,113.0,101.0,13.4,1505.3,326.6,-0.7,1.8,2470.258,13.32,0.038,94.5
2020-06-01T09:34:03,42.805,6.029,0.052,-0.012,-0.007,103.0,114.0,101.0,13.3,1505.3,327.4,-0.7,1.8,2470.215,13.32,0.053,103.0
2020-06-01T09:37:03,42.805,6.029,0.02,-0.01,-0.005,104.0,116.0,101.0,13.4,1505.3,324.3,-0.7,1.8,2470.225,13.32,0.022,116.6
2020-06-01T09:40:03,42.805,6.029,0.045,0.003,-0.021,104.0,116.0,100.0,13.4,1505.3,325.6,-0.7,1.8,2470.239,13.32,0.045,86.2
2020-06-01T09:43:03,42.805,6.029,0.047,-0.001,-0.005,104.0,114.0,101.0,13.3,1505.3,324.9,-0.7,1.8,2470.222,13.32,0.047,91.2
2020-06-01T09:46:03,42.805,6.029,0.021,0.015,0.004,103.0,112.0,101.0,13.4,1505.3,325.5,-0.7,1.8,2470.223,13.32,0.025,54.5
2020-06-01T09:49:03,42.805,6.029,0.046,-0.012,0.004,105.0,111.0,100.0,13.4,1505.3,323.4,-0.7,1.8,2470.19,13.32,0.047,104.6
2020-06-01T09:52:03,42.805,6.029,0.031,0.008,-0.003,103.0,113.0,102.0,13.3,1505.3,324.3,-0.7,1.8,2470.185,13.32,0.032,75.5
2020-06-01T09:55:03,42.805,6.029,0.038,-0.003,-0.024,103.0,110.0,101.0,13.3,1505.3,325.5,-0.7,1.8,2470.219,13.32,0.038,94.5
2020-06-01T09:58:03,42.805,6.029,0.043,0.0,-0.03,103.0,114.0,100.0,13.4,1505.3,326.5,-0.7,1.8,2470.212,13.32,0.043,90.0
2020-06-01T10:04:03,42.805,6.029,0.044,-0.01,-0.007,104.0,110.0,101.0,13.4,1505.2,327.1,-0.7,1.8,2470.197,13.3,0.045,102.8
2020-06-01T10:07:03,42.805,6.029,0.07,0.006,0.007,103.0,114.0,101.0,13.4,1505.3,326.3,-0.7,1.8,2470.227,13.31,0.07,85.1
2020-06-01T10:10:03,42.805,6.029,0.049,-0.011,-0.003,104.0,114.0,100.0,13.4,1505.3,327.0,-0.7,1.9,2470.263,13.31,0.05,102.7
2020-06-01T10:13:03,42.805,6.029,0.045,-0.011,0.012,103.0,111.0,101.0,13.4,1505.3,325.2,-0.7,1.8,2470.234,13.32,0.046,103.7